KT4FD Weather Reports


time (UTC)temp
F
wind
direction
speed
knots
gust
knots
rain 1hr
in
rain 24hr
in
rain mn
in
humidity
%
barometer
mb
20260905132003 74 314 0.0 0.9 0.00 0.00 0.00 91 1016.3
20260905131003 73 314 0.0 0.0 0.00 0.00 0.00 91 1016.4
20260905130003 72 314 0.0 0.0 0.00 0.00 0.00 91 1016.3
20260905125003 71 314 0.0 0.0 0.00 0.00 0.00 91 1016.2
20260905124003 71 314 0.0 0.0 0.00 0.00 0.00 91 1016.1
20260905123003 71 314 0.0 0.0 0.00 0.00 0.00 91 1016.3
20260905122003 71 314 0.0 1.7 0.00 0.00 0.00 91 1016.3
20260905121003 70 314 0.0 0.0 0.00 0.00 0.00 91 1016.1
20260905120004 70 314 0.0 0.0 0.00 0.00 0.00 91 1016.1
20260905115002 70 314 0.0 0.0 0.00 0.00 0.00 91 1015.9
20260905114003 70 314 0.0 0.0 0.00 0.00 0.00 91 1015.8
20260905103003 70 314 0.0 0.0 0.00 0.00 0.00 91 1015.3
20260905102003 70 314 0.0 0.0 0.00 0.00 0.00 91 1015.2
20260905101003 70 314 0.0 0.0 0.00 0.00 0.00 91 1015.3
20260905100004 70 314 0.0 0.0 0.00 0.00 0.00 91 1015.1
20260905095003 70 314 0.0 0.0 0.00 0.00 0.00 91 1015.0
20260905094003 70 314 0.0 0.0 0.00 0.00 0.00 91 1015.0
20260905093003 70 314 0.0 0.0 0.00 0.00 0.00 91 1015.0
20260905092003 70 314 0.0 0.0 0.00 0.00 0.00 91 1015.1
20260905091003 70 314 0.0 0.0 0.00 0.00 0.00 91 1015.2
20260905090004 70 314 0.0 0.0 0.00 0.00 0.00 91 1015.1
20260905085003 70 314 0.0 0.0 0.00 0.00 0.00 91 1015.2
20260905084003 70 314 0.0 0.0 0.00 0.00 0.00 91 1015.2
20260905083003 71 314 0.0 0.0 0.00 0.00 0.00 91 1015.2
20260905061003 72 314 0.0 0.9 0.00 0.00 0.00 90 1015.5
20260905060003 72 314 0.0 0.9 0.00 0.00 0.00 90 1015.4
20260905055003 72 314 0.0 0.9 0.00 0.00 0.00 91 1015.5
20260905054003 72 314 0.0 2.6 0.00 0.00 0.00 91 1015.5
20260905053003 72 314 0.0 0.9 0.00 0.00 0.00 91 1015.5
20260905052004 72 314 0.0 0.0 0.00 0.00 0.00 91 1015.7
20260905031004 74 314 0.0 0.0 0.00 0.00 0.00 88 1016.6
20260905030004 74 314 0.0 0.0 0.00 0.00 0.00 88 1016.7
20260905025003 74 314 0.0 0.9 0.00 0.00 0.00 90 1016.9
20260905024004 75 314 0.0 0.0 0.00 0.00 0.00 90 1017.0
20260905023003 75 314 0.0 0.0 0.00 0.00 0.00 90 1016.9
20260905022003 75 314 0.0 0.0 0.00 0.00 0.00 89 1016.8
20260905021004 75 314 0.0 0.0 0.00 0.00 0.00 89 1016.8
20260905010003 78 314 0.0 0.0 0.00 0.00 0.00 87 1016.4
20260905005004 79 314 0.0 0.0 0.00 0.00 0.00 85 1016.2
20260905004004 79 314 0.0 0.0 0.00 0.00 0.00 84 1016.3
20260905003003 80 314 0.0 0.0 0.00 0.00 0.00 83 1016.1
20260904205004 94 314 1.7 2.6 0.00 0.00 0.00 56 1015.8
20260904204004 93 315 2.6 5.2 0.00 0.00 0.00 56 1015.7
20260904203004 92 317 1.7 2.6 0.00 0.00 0.00 60 1015.8
20260904202004 91 317 1.7 4.3 0.00 0.00 0.00 62 1015.8
20260904201003 90 317 1.7 2.6 0.00 0.00 0.00 63 1016.0
20260904200003 90 317 1.7 7.0 0.00 0.00 0.00 63 1016.2
20260904185003 89 319 2.6 5.2 0.00 0.00 0.00 67 1017.4
20260904184004 90 319 1.7 5.2 0.00 0.00 0.00 65 1017.5
20260904183003 89 319 3.5 7.0 0.00 0.00 0.00 64 1017.6
20260904182003 90 319 2.6 7.0 0.00 0.00 0.00 63 1017.7
20260904181003 90 317 2.6 4.3 0.00 0.00 0.00 64 1017.7
20260904180004 90 317 2.6 8.7 0.00 0.00 0.00 63 1017.8
20260904175003 89 292 2.6 7.0 0.00 0.00 0.00 60 1017.9
20260904174003 89 290 1.7 7.8 0.00 0.00 0.00 63 1018.0
20260904173003 88 290 1.7 7.0 0.00 0.00 0.00 69 1018.1
20260904172003 88 290 5.2 7.8 0.00 0.00 0.00 68 1018.3
20260904171003 88 318 4.3 7.0 0.00 0.00 0.00 70 1018.3
20260904170003 87 321 1.7 2.6 0.00 0.00 0.00 67 1018.4
20260904165004 87 321 1.7 2.6 0.00 0.00 0.00 65 1018.4
20260904164004 87 321 2.6 5.2 0.00 0.00 0.00 70 1018.5
20260904163003 86 321 1.7 5.2 0.00 0.00 0.00 70 1018.6
20260904162004 86 321 1.7 4.3 0.00 0.00 0.00 70 1018.6
20260904161003 86 321 2.6 5.2 0.00 0.00 0.00 71 1018.7
20260904160003 86 321 1.7 2.6 0.00 0.00 0.00 74 1018.9
20260904155003 85 321 0.9 2.6 0.00 0.00 0.00 73 1018.9
20260904154003 85 321 0.9 4.3 0.00 0.00 0.00 75 1019.1
20260904153004 84 320 0.0 0.0 0.00 0.00 0.00 75 1019.1
20260904152003 83 320 0.0 0.0 0.00 0.00 0.00 78 1019.1
20260904151004 83 320 0.0 0.0 0.00 0.00 0.00 78 1019.0
20260904150004 82 320 0.9 2.6 0.00 0.00 0.00 79 1019.0
20260904145003 81 320 1.7 2.6 0.00 0.00 0.00 78 1018.9
20260904144004 80 320 1.7 2.6 0.00 0.00 0.00 80 1019.0
20260904143003 80 320 1.7 2.6 0.00 0.00 0.00 82 1019.0
20260904142004 78 320 0.0 0.0 0.00 0.00 0.00 84 1018.9
20260904141003 78 320 0.0 0.0 0.00 0.00 0.00 85 1018.8
20260904140004 77 320 0.0 0.0 0.00 0.00 0.00 88 1019.0
20260904135003 75 320 0.0 0.0 0.00 0.00 0.00 90 1019.0
20260904134003 74 320 0.0 0.0 0.00 0.00 0.00 91 1018.9